CAPE
35 11 0 105 583 181 2 0 7 76 118 83 139 400 338 438 450 347 80 250 232 298 767 1361 2212 1762 1664 1818 1693 1764 1975 2137 2115 2019 1840 2227 1988 1834 1894 1891 1316 1598 1857 1732 2055 1827 2138 2365 2413
0 0 153 327 145 1 0 92 298 167 157 143 311 408 255 245 177 173 231 287 258 575 849 1152 2156 2129 1673 1640 1773 1823 2073 2185 2053 1811 2220 2093 1571 1956 2018 1719 1958 1535 1487 1955 1802 1633 2188 2230 2366
1 103 279 144 59 8 98 91 200 205 341 345 347 143 288 213 263 219 256 331 379 522 692 1131 1954 2224 1708 1703 1750 2007 1882 1960 2045 1922 2000 1902 1723 1957 1862 1672 1889 1981 1639 1841 1903 1704 1860 2034 1827
148 415 208 88 14 3 122 139 116 198 207 221 107 103 127 180 167 114 158 259 295 594 755 1812 2305 1938 2131 2044 2229 2227 2133 2092 2048 1965 1974 1794 2067 1863 1758 1808 1956 1814 1638 1712 1701 1585 1670 1508 1441
338 363 222 2 0 0 0 31 181 127 167 288 210 154 153 58 59 46 69 278 421 615 1150 1711 2581 2452 2315 2173 2027 1977 2070 2080 2032 1940 2054 1444 1785 1883 1872 1970 1847 1685 1556 1485 1418 1453 1554 1574 1613
361 395 264 4 7 60 112 42 53 104 237 221 163 142 173 123 30 7 23 340 461 523 1188 1423 2023 2137 2227 2009 1885 2074 1954 1859 1923 2010 1918 2078 1655 1718 1743 1706 1784 1673 1510 1464 1570 1612 1539 1580 1710
146 101 201 158 57 64 473 332 83 173 223 88 67 115 100 56 10 28 62 145 121 668 801 1358 1558 1762 2084 2013 1990 1971 2002 1901 1931 2064 2253 1882 1784 1904 1816 1790 1596 1597 1455 1258 1367 1455 1561 1526 1617
222 16 2 134 153 231 106 121 233 501 214 183 87 117 25 64 20 10 3 33 133 424 747 1109 1401 1326 1423 1405 1809 1910 2012 2032 2052 2025 1810 1797 1851 1632 1535 2016 1860 1408 1345 1276 1204 1287 1471 1730 1871
104 22 1 168 252 3 0 8 114 539 140 226 210 101 20 2 19 2 5 22 135 228 795 1045 854 1077 1053 1452 1614 1819 1937 2007 1995 1672 1641 1756 1217 1002 1074 1912 1891 1374 1309 1297 1427 1515 1580 1661 1602
7 5 41 184 96 66 0 0 1 242 389 228 133 159 49 38 47 0 21 28 53 216 654 936 352 716 975 1355 1408 1330 1468 1621 1382 1241 1212 1166 860 797 878 1562 1728 1418 1282 1320 1551 1538 890 1022 462
0 0 42 77 156 184 206 0 0 210 273 310 143 91 8 43 5 9 5 1 37 132 342 143 200 594 695 839 1241 1302 1203 1044 1050 1006 904 861 806 550 577 829 1078 936 1374 955 706 768 487 384 295
0 0 0 15 229 243 122 480 589 152 275 245 174 67 16 9 6 6 4 0 20 39 4 124 109 156 374 859 1226 1195 932 1334 1068 658 497 863 137 47 338 713 459 395 112 249 291 617 562 327 763
0 0 0 12 179 210 592 661 4 134 191 196 209 46 7 6 4 2 0 0 0 77 322 283 676 256 284 794 1121 462 793 1247 595 899 299 384 685 578 377 724 446 284 18 30 80 46 475 647 575
0 0 0 1 2 222 417 415 2 45 128 275 225 65 13 12 3 4 0 0 10 327 164 151 152 173 855 798 776 684 471 557 869 811 263 141 770 659 555 318 454 407 163 154 324 306 344 302 742
0 0 0 0 0 8 288 320 441 488 467 410 251 131 19 7 13 5 0 0 0 221 97 312 583 286 624 1243 829 268 8 229 1136 1192 451 242 506 864 1338 616 288 451 0 142 319 223 306 361 704
0 0 0 0 0 0 152 302 621 179 543 332 256 246 136 8 12 9 0 0 0 118 18 16 437 705 372 1106 830 293 22 0 837 1196 1121 814 1112 846 760 941 495 451 267 452 467 432 443 212 483
0 0 0 0 0 0 38 376 260 4 142 308 326 206 222 77 36 6 0 0 0 39 29 1 5 639 199 924 449 714 115 443 1050 955 1142 1471 1105 8 696 769 774 1019 803 161 372 106 138 682 421
0 0 0 0 0 0 0 530 277 133 164 4 273 64 205 211 115 2 0 0 0 79 3 21 0 461 478 245 394 620 744 722 1164 1024 1303 1281 1376 1142 738 628 1198 1386 1046 198 289 576 165 672 268
0 0 0 0 0 0 0 361 590 404 219 289 51 0 267 223 181 129 5 0 0 60 4 44 10 477 888 707 416 583 598 118 903 1094 1525 1431 1364 1092 619 848 1533 1087 633 715 812 1211 770 750 247
0 0 0 0 0 0 0 143 222 18 18 14 47 86 237 273 221 124 17 0 0 0 74 10 158 525 764 691 605 346 558 482 638 978 1485 1785 1045 1151 983 948 1305 1161 1087 1202 877 68 98 798 221
0 0 0 0 0 0 0 134 54 29 28 65 281 282 37 273 243 179 49 0 0 0 39 171 472 387 663 232 483 780 1062 257 440 855 1403 1424 1558 1482 1081 967 1527 1486 1337 740 918 291 554 286 68
0 0 0 0 0 0 0 0 74 52 67 122 184 126 60 1 185 238 69 0 0 0 0 371 559 399 276 343 100 473 710 460 738 823 1310 1203 1464 1574 1062 1530 1443 1570 1443 1089 785 1229 1370 922 529
0 0 0 0 0 0 0 0 0 96 115 68 84 0 0 0 26 177 111 53 0 0 0 111 721 345 130 441 28 260 311 433 468 838 1280 1089 1602 1721 1518 1959 1430 1284 1450 1179 1320 1348 1436 1638 1130
0 0 0 0 0 0 0 0 0 95 136 133 105 0 13 0 6 246 169 95 5 0 0 0 738 244 172 106 557 199 148 365 792 641 1154 1178 1644 1970 1839 1784 1559 1373 1495 1761 1262 1622 1498 1601 1849
0 0 0 0 0 0 0 0 0 0 356 365 162 0 0 0 38 332 178 159 109 27 14 0 340 649 166 108 188 800 57 185 949 649 1558 1149 1326 1208 1828 1768 1684 1584 1519 1680 1784 1636 2021 1877 1583
0 0 0 0 0 0 0 0 0 0 184 155 73 0 0 181 128 339 276 175 189 129 137 90 73 557 407 34 32 437 340 108 472 1369 754 932 982 807 890 1815 1350 1323 1362 1463 1720 1443 1933 1543 1779
0 0 0 0 0 0 0 0 0 0 0 238 47 2 6 232 402 355 312 215 220 249 179 335 174 229 571 351 0 118 1015 17 330 721 1197 846 326 734 844 1804 1828 1607 1728 1776 1652 1580 1945 1734 1928
0 0 0 0 0 0 0 0 0 0 0 35 201 54 343 362 165 272 119 329 222 338 265 193 463 301 604 553 206 63 468 715 380 527 1242 1312 610 796 1167 1407 2004 1906 1709 1387 1917 1309 1858 1334 1389
0 0 0 0 0 0 0 0 0 0 0 0 10 79 220 206 92 62 80 196 399 415 412 248 695 545 617 484 646 58 77 783 904 459 529 1336 1035 1987 1940 1737 2013 2039 1888 1852 1900 1301 1685 1417 1326
0 0 0 0 0 0 0 0 0 0 0 0 0 332 340 131 56 33 70 253 233 475 595 444 594 751 733 553 709 630 30 333 707 670 218 664 1126 1237 1963 1985 1929 1821 1796 2026 1906 1886 1863 1718 1683
CIN
-76 -95 0 -10 0 -7 0 0 -92 -29 -14 -27 -17 -15 -39 -47 -24 -54 -155 -75 -86 -79 -25 -1 0 0 0 0 -1 -2 0 0 0 0 0 0 0 0 0 0 -3 0 0 0 0 0 0 0 0
0 0 -5 -1 -1 -59 0 -27 -21 -18 -31 -47 -17 -32 -85 -70 -145 -140 -85 -63 -83 -57 -24 -6 0 0 0 0 0 0 0 0 0 0 0 0 0 0 0 0 0 0 0 0 0 0 0 0 0
-48 -10 0 -4 -5 -49 -9 -73 -83 -18 -29 -49 -44 -82 -111 -97 -97 -122 -83 -68 -74 -48 -39 -8 0 0 0 0 0 0 0 0 0 0 0 0 0 0 0 0 0 0 -2 0 0 0 0 -1 -8
-28 -6 -15 -1 -53 -58 -75 -51 -30 -8 -23 -73 -120 -117 -80 -57 -116 -149 -94 -72 -70 -42 -36 0 0 0 0 0 0 0 0 0 0 0 0 0 0 0 0 0 0 0 0 0 0 0 -1 -24 -19
-9 -8 -1 0 0 0 0 -163 -28 -38 -42 -59 -94 -55 -43 -66 -106 -130 -115 -78 -81 -43 -11 0 0 0 0 0 0 0 0 0 0 0 0 -2 0 0 0 0 0 0 0 0 0 -4 -14 -30 -17
-10 -7 -11 -9 -102 -41 -50 -187 -43 -62 -40 -65 -86 -90 -47 -38 -118 -184 -128 -83 -93 -71 -5 -2 0 0 0 0 0 0 0 0 0 0 0 0 0 0 0 0 0 0 0 -3 -5 -6 -21 -30 -29
-30 -11 -30 -8 -48 -9 -23 -61 -64 -91 -63 -95 -101 -110 -57 -66 -150 -131 -134 -101 -120 -72 -35 -3 -2 -1 0 0 0 0 0 0 0 0 0 0 0 0 0 0 0 0 0 -10 -13 -24 -27 -34 -47
-33 -21 -32 -33 -21 -12 -12 -154 -122 -21 -55 -67 -101 -92 -120 -72 -123 -101 -234 -206 -134 -97 -47 -7 -5 -7 -6 -2 0 0 0 0 0 -1 -2 -4 -2 -1 0 0 0 0 -2 -9 -22 -28 -11 -21 -24
-31 -3 -29 -42 -14 -64 0 -131 -56 -37 -130 -63 -72 -140 -118 -57 -53 -18 -176 -272 -123 -99 -44 -8 -18 -16 -17 -5 -2 -2 0 0 0 -7 -3 -10 -27 -25 -15 -1 0 -3 -9 -23 -17 -14 -26 -46 -60
-6 -17 -31 -76 -73 -124 0 0 0 -138 -19 -70 -96 -68 -54 -67 -82 0 -244 -256 -198 -91 -51 -23 -85 -44 -33 -9 -31 -35 -21 -19 -32 -34 -35 -56 -55 -42 -57 -16 -13 -18 -18 -23 -12 -59 -105 -125 -221
0 0 -35 -52 -143 -111 -50 0 0 -54 -17 -87 -141 -108 -88 -86 -11 -17 -74 -48 -206 -107 -69 -112 -109 -63 -58 -73 -67 -59 -63 -58 -54 -51 -57 -46 -62 -115 -91 -66 -47 -36 -33 -76 -85 -103 -227 -205 -233
0 0 0 -12 -32 -189 -170 -56 -5 -92 -70 -81 -150 -132 -105 -17 -18 -26 -45 0 -274 -181 -268 -117 -117 -137 -80 -103 -91 -78 -78 -43 -62 -93 -130 -76 -155 -189 -158 -93 -118 -161 -347 -205 -214 -176 -100 -175 -86
0 0 0 -28 -52 -220 -73 -109 -122 -143 -129 -85 -88 -97 -65 -10 -14 -15 0 0 0 -203 -46 -64 -59 -99 -88 -101 -49 -74 -79 -46 -66 -67 -145 -162 -129 -115 -152 -105 -124 -158 -372 -229 -128 -181 -106 -175 -183
0 0 0 -7 -5 -20 -67 -145 -122 -155 -106 -41 -35 -50 -30 -7 -15 -16 0 0 -40 -73 -88 -119 -101 -70 -55 -35 -53 -60 -103 -78 -62 -83 -205 -207 -144 -121 -129 -179 -164 -134 -202 -223 -157 -131 -170 -193 -168
0 0 0 0 0 -24 -50 -135 -50 -197 -132 -7 -32 -58 -54 -15 -13 -17 0 0 0 -72 -117 -77 -103 -96 -41 -31 -38 -122 -37 -89 -74 -77 -151 -135 -107 -81 -53 -137 -152 -139 0 -154 -108 -185 -178 -133 -93
0 0 0 0 0 0 -8 -70 -71 -272 -95 -55 -39 -4 -29 -22 -20 -16 0 0 0 -102 -183 -151 -36 -63 -62 -29 -51 -120 -258 0 -88 -48 -102 -82 -81 -113 -96 -92 -128 -147 -137 -100 -129 -129 -133 -137 -102
0 0 0 0 0 0 -8 -92 -166 -242 -206 -113 -41 -19 -9 -41 -36 -40 -25 0 0 -167 -157 -109 -37 -61 -78 -52 -62 -66 -132 -106 -69 -66 -48 -37 -82 -131 -94 -99 -76 -76 -96 -166 -149 -223 -170 -77 -81
0 0 0 0 0 0 0 -127 -86 -186 -184 -92 -31 -25 -44 -21 -48 -30 0 0 0 -145 -112 -202 0 -70 -60 -70 -75 -62 -56 -76 -67 -68 -47 -35 -84 -88 -105 -118 -63 -69 -93 -119 -120 -98 -160 -96 -101
0 0 0 0 0 0 0 -216 -156 -125 -211 -86 -117 0 -18 -19 -26 -60 -40 0 0 -156 -61 -196 -210 -69 -44 -58 -72 -55 -36 -95 -61 -63 -53 -44 -67 -100 -116 -108 -31 -75 -59 -98 -80 -65 -68 -77 -144
0 0 0 0 0 0 0 -199 -266 -410 -432 -358 -350 -188 -53 -38 -15 -31 -49 0 0 0 -176 -240 -140 -79 -55 -57 -56 -75 -53 -62 -74 -72 -49 -42 -51 -76 -84 -80 -41 -38 -50 -47 -63 -132 -143 -72 -181
0 0 0 0 0 0 0 -219 -294 -391 -362 -383 -280 -145 -96 -55 -37 -13 -46 -26 0 0 -156 -164 -110 -114 -79 -108 -65 -50 -49 -108 -74 -64 -48 -48 -46 -62 -51 -70 -45 -34 -51 -66 -58 -126 -76 -81 -123
0 0 0 0 0 0 0 0 -282 -346 -371 -333 -232 -380 -312 -29 -41 -37 -27 -3 0 0 0 -137 -126 -123 -143 -121 -143 -72 -49 -48 -48 -57 -51 -47 -33 -47 -67 -62 -42 -42 -60 -63 -72 -59 -56 -83 -64
0 0 0 0 0 0 0 0 0 -276 -233 -329 -244 0 0 0 -49 -71 -61 -79 0 0 0 -205 -119 -144 -179 -130 -234 -128 -102 -69 -69 -74 -51 -70 -50 -46 -72 -52 -48 -44 -52 -59 -40 -39 -34 -55 -62
0 0 0 0 0 0 0 0 0 -176 -201 -373 -399 0 -335 -29 -14 -54 -117 -65 -144 0 0 0 -119 -198 -204 -237 -111 -169 -165 -102 -48 -61 -58 -69 -47 -39 -41 -51 -57 -58 -43 -43 -38 -40 -33 -43 -61
0 0 0 0 0 0 0 0 0 0 -134 -381 -536 0 0 0 -358 -29 -133 -130 -155 -270 -293 -1 -211 -172 -248 -279 -237 -103 -243 -190 -57 -81 -47 -69 -59 -61 -37 -47 -55 -56 -55 -50 -39 -41 -40 -44 -57
0 0 0 0 0 0 0 0 0 0 -31 -240 -492 0 0 -270 -344 -79 -132 -183 -158 -262 -286 -275 -310 -205 -233 -337 -338 -200 -192 -238 -123 -66 -95 -87 -64 -71 -80 -70 -92 -80 -76 -69 -50 -58 -46 -62 -60
0 0 0 0 0 0 0 0 0 0 0 -139 -301 -45 -347 -206 -86 -34 -100 -170 -174 -204 -330 -300 -317 -286 -218 -249 0 -301 -125 -256 -185 -81 -69 -76 -155 -104 -100 -74 -80 -93 -72 -58 -59 -55 -39 -47 -50
0 0 0 0 0 0 0 0 0 0 0 -76 -150 -230 -179 -163 -435 -295 -335 -76 -192 -188 -241 -294 -286 -292 -236 -206 -303 -368 -208 -135 -196 -119 -79 -52 -82 -68 -84 -94 -69 -60 -66 -73 -55 -74 -54 -59 -69
0 0 0 0 0 0 0 0 0 0 0 0 -71 -212 -135 -328 -466 -464 -391 -418 -121 -195 -192 -259 -242 -266 -217 -215 -170 -379 -379 -131 -119 -155 -132 -71 -70 -76 -76 -102 -69 -58 -52 -48 -60 -70 -46 -64 -70
0 0 0 0 0 0 0 0 0 0 0 0 0 -143 -214 -361 -437 -706 -586 -549 -437 -67 -178 -244 -247 -256 -257 -233 -164 -162 -403 -222 -127 -159 -257 -141 -91 -108 -74 -69 -58 -56 -48 -36 -45 -45 -27 -35 -48
Wind_Speed
11 8 3 2 3 2 3 6 5 10 7 10 11 10 9 5 3 5 15 15 19 15 11 11 12 12 11 12 11 11 12 13 11 10 10 12 12 11 12 11 12 11 11 11 10 12 10 12 11
9 11 2 2 2 4 5 6 6 12 15 19 17 18 12 7 8 16 17 19 19 15 11 11 12 12 14 13 12 11 11 11 10 10 11 11 12 11 10 11 12 12 11 12 11 12 11 10 9
10 5 2 4 2 4 7 8 7 18 21 14 9 10 9 12 18 15 21 21 19 15 12 12 15 13 14 13 12 12 12 11 10 10 11 11 11 10 11 11 11 13 11 11 12 12 10 9 8
4 1 4 4 2 5 8 13 17 13 19 17 15 12 12 9 12 16 23 22 18 16 13 14 15 14 14 13 13 12 13 12 11 11 11 12 11 11 11 11 11 11 11 11 11 11 10 7 9
4 2 1 2 7 8 7 15 3 17 12 19 23 16 9 17 22 23 23 20 19 15 12 11 15 15 15 14 14 13 13 12 12 11 11 11 10 10 10 11 12 11 11 10 10 9 8 5 9
3 3 2 6 12 12 11 21 17 15 17 21 21 15 8 21 22 19 22 21 20 16 12 10 14 14 15 14 13 14 14 12 12 11 11 10 10 10 10 9 10 11 11 10 10 8 6 4 7
5 1 5 8 13 8 13 16 16 16 21 17 20 19 15 20 20 19 23 22 20 18 12 9 8 12 14 14 13 14 13 12 12 11 11 11 10 10 9 10 9 10 10 9 7 5 5 3 3
8 3 8 3 2 6 7 11 9 15 16 21 19 11 18 21 20 18 22 21 19 17 13 10 7 7 6 6 13 13 13 12 12 10 10 9 9 9 9 7 9 10 9 7 4 2 3 2 4
18 10 11 3 7 1 6 7 5 5 19 19 6 21 25 21 19 22 22 21 17 14 14 12 9 7 6 6 8 11 13 12 11 8 8 6 3 5 7 9 9 9 8 7 6 5 3 5 8
10 9 8 7 7 6 3 11 14 6 21 15 18 21 23 23 19 23 23 19 18 17 16 14 12 9 9 8 6 6 6 4 5 5 6 3 4 4 8 8 10 11 7 5 6 7 4 4 5
10 15 9 11 17 6 20 16 6 16 10 21 23 25 24 19 17 19 22 21 21 20 15 16 14 13 9 8 5 3 3 3 4 6 4 3 3 3 4 3 2 3 6 3 8 5 4 5 6
12 18 19 14 14 19 13 18 5 8 13 20 26 29 24 20 18 19 20 19 18 18 17 15 15 12 8 7 6 6 5 4 3 5 6 4 1 3 4 3 3 4 2 3 4 3 5 5 2
16 14 16 16 17 20 17 22 16 23 19 5 22 25 22 19 17 14 19 19 16 12 18 16 11 10 8 7 5 5 4 4 5 5 6 4 4 2 4 3 4 3 3 1 4 2 2 6 6
12 14 14 11 9 7 21 22 23 9 3 9 24 24 19 19 18 14 18 17 14 18 18 10 12 9 7 6 5 5 5 5 4 4 5 4 2 4 5 4 5 4 6 5 3 4 6 4 4
15 10 12 9 5 5 14 13 12 7 9 12 18 21 20 18 16 12 17 15 14 16 15 13 11 9 7 5 6 7 4 5 4 7 7 8 4 5 3 4 4 5 5 4 5 8 5 3 2
8 8 7 9 8 11 12 10 10 12 11 13 6 14 19 19 19 13 19 17 12 18 15 13 11 8 8 5 5 4 3 4 4 5 5 6 7 5 5 3 3 4 5 4 2 1 3 3 3
7 7 8 11 14 7 7 16 17 18 13 8 8 9 9 18 19 16 21 19 14 18 15 12 11 9 8 6 3 5 6 5 3 4 5 6 7 6 4 4 2 5 5 5 5 2 2 2 1
8 8 9 9 12 13 12 16 16 15 20 21 9 9 15 15 15 14 22 20 17 17 14 12 12 10 8 5 3 3 4 5 5 5 5 7 5 6 3 2 1 3 4 2 3 2 2 0 2
14 15 13 11 12 8 15 19 24 22 19 23 22 19 18 20 14 13 22 21 16 17 15 13 13 11 9 3 3 2 4 3 2 3 7 7 6 6 4 1 3 4 4 4 4 2 1 2 2
17 16 16 14 14 9 9 13 20 18 21 25 23 14 15 21 18 15 19 21 18 19 15 13 15 11 9 6 3 3 3 3 5 4 5 5 7 7 6 5 2 4 3 5 3 4 0 1 0
15 12 13 12 19 14 6 5 9 12 8 9 7 9 4 24 21 18 15 21 18 20 16 14 15 12 9 11 4 2 1 2 3 3 4 5 7 7 7 5 3 4 4 3 3 4 5 2 1
9 10 12 14 10 5 5 5 6 13 8 15 12 9 5 12 23 18 17 21 20 20 18 15 16 15 10 11 8 5 4 4 4 8 4 5 7 7 7 6 5 4 2 3 3 2 2 3 2
12 10 9 10 9 5 18 3 7 16 7 8 15 10 11 16 20 24 22 19 21 20 19 16 17 16 15 10 10 7 5 4 3 5 8 6 5 8 7 7 6 5 3 4 4 1 2 2 2
6 7 11 7 2 5 11 3 10 11 18 10 12 18 7 25 21 26 25 20 19 19 19 18 17 18 14 12 9 10 9 7 4 6 6 6 4 4 6 6 6 5 4 4 4 3 3 1 0
6 4 3 5 5 10 8 7 11 6 21 27 31 26 35 33 13 22 25 22 19 23 22 20 20 18 18 15 12 9 11 9 7 5 8 10 4 3 6 7 6 4 4 4 3 2 1 2 1
7 7 6 8 5 9 9 8 10 13 14 25 31 33 23 22 18 27 27 24 22 23 23 23 22 20 20 18 16 9 9 7 6 5 5 8 8 7 7 8 8 7 7 5 4 3 3 2 2
9 7 8 6 9 7 7 9 18 11 9 18 24 21 21 21 20 23 26 25 24 21 24 24 23 21 19 19 15 13 7 11 7 7 5 6 7 7 7 9 10 9 8 7 6 4 4 2 3
10 5 3 4 7 12 6 11 7 6 13 15 20 24 24 15 8 10 5 19 23 21 20 20 22 22 20 18 15 14 12 11 9 8 7 7 7 6 10 11 10 8 7 7 7 5 4 5 4
13 3 4 2 3 11 8 8 9 8 7 18 19 27 24 16 16 13 8 5 16 22 21 20 20 22 20 19 17 17 14 8 6 8 8 7 5 7 9 10 8 8 8 7 7 7 6 6 5
15 13 9 5 9 5 4 7 24 13 20 32 11 24 26 21 14 9 8 8 11 20 22 23 21 22 22 20 18 18 16 13 12 8 8 7 8 6 8 10 11 9 8 7 8 8 6 7 7
Wind_Direction
172 184 205 63 239 225 286 302 263 142 98 106 94 102 106 58 168 163 140 141 126 130 137 151 143 142 134 129 131 121 114 116 114 111 110 102 99 102 98 101 98 97 101 109 109 103 102 102 103
183 186 144 262 220 110 289 236 221 99 105 113 113 99 74 87 92 126 136 131 126 129 142 135 141 140 134 134 134 127 121 119 119 123 110 109 106 106 106 92 109 100 96 104 102 110 102 105 102
208 189 235 200 112 162 186 232 82 120 114 112 99 79 66 110 118 133 131 129 127 136 132 143 149 140 140 143 141 140 137 132 129 121 118 118 121 107 110 104 93 98 98 109 106 101 106 102 93
188 126 277 20 147 232 207 187 135 98 90 103 117 73 94 119 111 128 130 134 135 124 130 145 149 143 144 145 137 131 128 124 125 121 123 124 117 113 105 105 102 98 102 103 108 105 109 107 83
212 189 316 152 290 276 269 272 299 123 92 101 111 119 98 111 124 138 139 124 121 121 129 139 142 146 139 133 130 132 129 130 128 126 135 127 125 111 110 110 107 108 105 105 113 116 114 105 83
190 227 213 96 285 278 286 270 133 107 118 115 111 117 116 138 144 153 136 125 125 128 129 139 138 134 132 133 135 127 126 129 134 132 139 131 129 124 122 115 114 108 102 97 110 120 132 119 94
239 183 251 121 225 272 313 296 141 127 127 129 134 120 145 152 161 160 127 127 129 127 130 128 134 137 137 134 134 129 128 131 134 142 145 146 135 131 124 117 107 109 108 105 107 122 126 102 137
219 238 292 44 265 159 252 335 18 139 134 138 134 140 161 166 169 142 133 130 128 128 134 136 135 127 119 146 138 135 135 140 143 153 154 146 136 126 114 110 122 114 107 96 91 28 19 27 30
246 254 278 27 340 237 9 346 310 302 126 157 186 149 158 162 163 135 131 127 128 136 140 145 145 143 143 131 145 143 143 151 146 155 153 157 141 138 131 120 120 114 114 121 98 41 48 98 55
217 240 242 135 292 149 206 61 314 248 148 112 118 141 164 169 166 145 136 139 144 147 150 154 155 155 153 152 149 146 154 139 165 161 176 178 147 162 134 131 130 126 122 114 87 79 343 359 50
245 244 241 194 208 152 137 147 222 349 170 141 147 152 166 176 158 138 146 146 152 158 156 159 162 159 170 150 162 159 161 161 169 153 177 163 129 88 105 115 96 96 95 51 31 348 345 347 65
235 245 255 248 190 172 158 135 231 354 299 144 153 156 167 162 162 147 152 146 154 160 157 154 159 159 171 149 174 170 167 162 185 169 156 145 231 125 96 88 82 93 134 81 87 27 345 332 86
247 253 264 275 158 183 151 156 152 178 224 140 150 160 171 156 168 152 144 152 157 138 142 154 145 153 163 147 175 171 154 157 185 128 125 121 128 187 103 161 130 141 102 180 180 171 265 257 255
256 253 259 268 251 169 133 143 156 222 172 199 158 166 160 159 176 151 143 154 126 139 147 136 136 153 132 147 138 124 130 137 135 118 133 130 237 177 148 148 151 149 142 203 216 186 199 246 278
274 299 303 278 275 244 123 152 97 72 64 162 166 158 161 164 186 163 150 147 136 151 147 138 137 147 133 113 122 134 146 120 119 135 146 164 201 175 151 170 115 160 164 188 190 195 179 182 232
300 293 274 285 250 257 162 123 130 121 123 140 142 168 168 172 192 170 151 152 150 144 148 144 142 139 136 141 132 158 156 121 158 147 146 151 108 90 83 162 162 147 144 164 142 108 93 150 179
283 255 264 265 267 244 202 121 169 155 163 65 177 192 188 184 194 158 154 157 163 146 150 150 142 143 144 162 163 107 175 146 183 156 145 146 121 142 136 126 153 194 160 176 139 161 174 144 117
253 257 234 243 253 243 220 136 172 170 144 116 306 276 189 207 200 166 160 161 161 148 156 137 150 148 147 159 161 112 159 143 164 162 152 144 147 139 123 93 12 63 112 95 95 124 201 307 181
269 279 287 278 246 239 202 150 176 170 137 152 185 245 210 194 206 182 163 161 159 151 158 145 151 159 146 155 154 133 165 157 147 140 158 158 149 150 145 155 171 126 141 170 171 108 213 284 181
254 269 281 288 288 184 228 167 165 167 163 168 186 180 221 184 191 192 166 165 159 160 159 153 156 160 155 156 165 159 177 159 177 164 171 174 150 165 158 162 172 149 143 107 110 113 300 31 90
247 244 270 277 301 310 234 72 147 193 159 173 154 174 316 180 188 192 176 170 162 165 163 158 156 163 157 169 154 171 168 70 106 169 180 205 153 163 149 172 153 137 132 150 150 157 133 163 256
257 262 259 268 291 277 31 280 213 183 164 167 164 80 351 346 186 191 182 173 171 170 168 155 158 167 170 168 176 165 177 159 178 175 183 182 166 155 159 166 162 139 141 146 195 161 192 152 207
250 279 282 283 287 310 296 32 263 156 147 214 144 80 303 296 244 190 189 176 173 169 173 166 159 170 177 172 176 173 183 179 179 160 170 178 186 163 170 167 161 151 131 173 166 262 127 106 144
269 251 275 297 325 295 268 162 281 171 185 155 132 126 285 257 248 192 186 181 172 169 171 174 164 175 176 180 170 180 184 197 181 177 163 175 183 169 166 168 159 157 163 166 175 169 128 165 93
262 292 312 303 290 253 265 266 234 265 186 168 168 183 193 210 226 196 186 186 173 172 176 179 176 175 181 183 186 185 192 184 193 170 172 165 171 179 170 161 163 168 179 198 191 175 151 195 254
252 205 178 226 231 263 250 263 262 251 177 173 179 188 202 197 203 198 184 184 184 177 178 180 184 180 180 185 192 192 197 192 190 179 171 169 179 188 174 171 170 179 183 194 176 181 211 197 246
256 264 239 238 275 280 273 278 260 250 273 175 182 186 199 209 201 189 184 181 186 182 186 183 183 185 183 185 188 195 197 195 187 193 189 183 177 185 181 168 172 180 184 181 185 184 207 224 230
184 234 319 293 222 260 288 287 267 268 237 193 200 186 192 191 133 130 25 195 184 188 188 186 182 186 184 184 190 193 199 203 183 182 207 184 189 177 181 181 175 173 180 181 179 195 211 191 215
338 293 297 255 234 241 264 269 256 245 327 293 197 191 185 179 161 154 157 247 212 187 183 187 182 184 186 189 187 194 196 196 185 190 196 194 198 148 163 171 165 176 182 184 177 195 210 206 210
299 287 238 184 279 244 204 271 279 321 3 349 230 189 178 178 147 144 133 281 282 217 185 185 183 185 187 187 188 192 194 193 201 201 197 191 197 168 169 177 181 187 186 184 185 196 197 198 212